Tracking 28125 objects as of 4-Oct-2023
HD Live streaming from Space Station
objects crossing your sky now

COSMOS 397 DEB

Track COSMOS 397 DEB now!
10-day predictions


NORAD ID: 5018
Int'l Code: 1971-015M
Perigee: 569.5 km
Apogee: 2,128.8 km
Inclination: 65.7 °
Period: 112.5 minutes
Semi major axis: 7720 km
RCS: 0.1181 m2 (medium)
Launch date: February 25, 1971
Source: Commonwealth of Independent States (former USSR) (CIS)
Launch site: TYURATAM MISSILE AND SPACE COMPLEX (TTMTR)

Note: This is SATELLITE DEBRIS
Your satellite tracking list
Your tracking list is empty




NASA's NSSDC Master Catalog

Two Line Element Set (TLE):
1  5018U 71015M   23277.40974752  .00000341  00000-0  18926-3 0  9994
2  5018  65.7118  77.7726 1009932 247.4136 101.7065 12.79863115452993
Source of the keplerian elements: AFSPC